User: anonymous   Login
Location: Unspecified
(0.0000°N, 0.0000°E)
Time: 02:59:13
(UTC+00:00)
Language:

Telstar 2 - Orbit

View from above orbital plane
View from above orbital plane
View from above satellite
View from above satellite

Ground track
Ground track

The orbit data is extracted from the following two-line orbital elements,

1   573U 63013A   18171.42763876 +.00000011 +00000-0 +16093-3 0  9993
2   573 042.7501 184.4096 4006733 197.6924 338.1035 06.39262504399460
Epoch (UTC): 20 June 2018 10:15:47
Eccentricity: 0.4006733
inclination: 42.7501°
perigee height: 972 km
apogee height: 10799 km
right ascension of ascending node: 184.4096°
argument of perigee: 197.6924°
revolutions per day: 6.39262504
mean anomaly at epoch: 338.1035°
orbit number at epoch: 39946

The dashed part of the orbit path shows where the satellite is in the earth's shadow,  

DLR